Time,TemperatureF,DewpointF,PressureIn,WindDirection,WindDirectionDegrees,WindSpeedMPH,WindSpeedGustMPH,Humidity,HourlyPrecipIn,Conditions,Clouds,dailyrainin,SoftwareType,DateUTC
2013-03-23 00:02:00,25.0,20.0,30.12,North,353,0.0,2.0,80,0.00,,,0.00,,2013-03-23 05:02:00,
2013-03-23 00:12:00,25.0,20.0,30.12,North,353,0.0,2.0,80,0.00,,,0.00,,2013-03-23 05:12:00,
2013-03-23 00:22:00,24.0,19.0,30.12,WSW,245,0.0,1.0,80,0.00,,,0.00,,2013-03-23 05:22:00,
2013-03-23 00:32:00,24.0,19.0,30.12,WSW,247,0.0,2.0,81,0.00,,,0.00,,2013-03-23 05:32:00,
2013-03-23 00:42:00,24.0,19.0,30.12,WSW,247,0.0,2.0,81,0.00,,,0.00,,2013-03-23 05:42:00,
2013-03-23 00:52:00,24.0,19.0,30.12,WNW,284,0.0,3.0,81,0.00,,,0.00,,2013-03-23 05:52:00,
2013-03-23 01:02:00,24.0,19.0,30.12,West,277,0.0,4.0,82,0.00,,,0.00,,2013-03-23 06:02:00,
2013-03-23 01:12:00,24.0,19.0,30.12,West,277,0.0,4.0,82,0.00,,,0.00,,2013-03-23 06:12:00,
2013-03-23 01:22:00,23.0,18.0,30.13,NNW,338,0.0,1.0,81,0.00,,,0.00,,2013-03-23 06:22:00,
2013-03-23 01:32:00,23.0,19.0,30.13,NNW,333,0.0,1.0,83,0.00,,,0.00,,2013-03-23 06:32:00,
2013-03-23 01:42:00,23.0,19.0,30.13,NNW,333,0.0,1.0,83,0.00,,,0.00,,2013-03-23 06:42:00,
2013-03-23 01:52:00,23.0,19.0,30.13,East,84,0.0,1.0,83,0.00,,,0.00,,2013-03-23 06:52:00,
2013-03-23 02:02:00,23.0,19.0,30.13,East,79,0.0,1.0,83,0.00,,,0.00,,2013-03-23 07:02:00,
2013-03-23 02:12:00,23.0,19.0,30.13,East,79,0.0,1.0,83,0.00,,,0.00,,2013-03-23 07:12:00,
2013-03-23 02:22:00,22.0,18.0,30.13,WSW,257,0.0,1.0,84,0.00,,,0.00,,2013-03-23 07:22:00,
2013-03-23 02:32:00,22.0,18.0,30.14,East,79,0.0,1.0,85,0.00,,,0.00,,2013-03-23 07:32:00,
2013-03-23 02:42:00,22.0,18.0,30.14,East,79,0.0,1.0,85,0.00,,,0.00,,2013-03-23 07:42:00,
2013-03-23 02:52:00,22.0,18.0,30.14,East,79,0.0,1.0,85,0.00,,,0.00,,2013-03-23 07:52:00,
2013-03-23 03:02:00,22.0,18.0,30.14,West,266,0.0,1.0,85,0.00,,,0.00,,2013-03-23 08:02:00,
2013-03-23 03:12:00,22.0,18.0,30.14,West,266,0.0,1.0,85,0.00,,,0.00,,2013-03-23 08:12:00,
2013-03-23 03:22:00,22.0,18.0,30.13,West,270,0.0,0.0,85,0.00,,,0.00,,2013-03-23 08:22:00,
2013-03-23 03:32:00,22.0,18.0,30.13,West,270,0.0,0.0,85,0.00,,,0.00,,2013-03-23 08:32:00,
2013-03-23 03:42:00,22.0,18.0,30.13,West,270,0.0,0.0,85,0.00,,,0.00,,2013-03-23 08:42:00,
2013-03-23 03:52:00,22.0,18.0,30.13,SE,145,0.0,0.0,86,0.00,,,0.00,,2013-03-23 08:52:00,
2013-03-23 04:02:00,22.0,18.0,30.13,SE,145,0.0,0.0,86,0.00,,,0.00,,2013-03-23 09:02:00,
2013-03-23 04:12:00,22.0,18.0,30.13,SE,145,0.0,0.0,86,0.00,,,0.00,,2013-03-23 09:12:00,
2013-03-23 04:22:00,22.0,19.0,30.13,SE,146,0.0,1.0,87,0.00,,,0.00,,2013-03-23 09:22:00,
2013-03-23 04:33:00,22.0,19.0,30.13,WSW,242,0.0,1.0,87,0.00,,,0.00,,2013-03-23 09:33:00,
2013-03-23 04:42:00,22.0,19.0,30.13,WSW,242,0.0,1.0,87,0.00,,,0.00,,2013-03-23 09:42:00,
2013-03-23 04:53:00,22.0,19.0,30.13,WSW,239,0.0,0.0,87,0.00,,,0.00,,2013-03-23 09:53:00,
2013-03-23 05:03:00,22.0,19.0,30.13,NW,314,0.0,1.0,87,0.00,,,0.00,,2013-03-23 10:03:00,
2013-03-23 05:13:00,22.0,19.0,30.13,NW,314,0.0,1.0,87,0.00,,,0.00,,2013-03-23 10:13:00,
2013-03-23 05:23:00,22.0,19.0,30.13,SW,228,0.0,1.0,87,0.00,,,0.00,,2013-03-23 10:23:00,
2013-03-23 05:33:00,22.0,19.0,30.13,North,4,0.0,0.0,87,0.00,,,0.00,,2013-03-23 10:33:00,
2013-03-23 05:42:00,22.0,19.0,30.13,North,4,0.0,0.0,87,0.00,,,0.00,,2013-03-23 10:42:00,
2013-03-23 05:52:00,22.0,19.0,30.13,NW,308,0.0,1.0,87,0.00,,,0.00,,2013-03-23 10:52:00,
2013-03-23 06:03:00,22.0,19.0,30.13,NW,321,0.0,1.0,87,0.00,,,0.00,,2013-03-23 11:03:00,
2013-03-23 06:12:00,22.0,19.0,30.13,NW,321,0.0,1.0,87,0.00,,,0.00,,2013-03-23 11:12:00,
2013-03-23 06:22:00,22.0,18.0,30.13,North,8,0.0,2.0,86,0.00,,,0.00,,2013-03-23 11:22:00,
2013-03-23 06:32:00,22.0,18.0,30.12,NW,319,0.0,1.0,86,0.00,,,0.00,,2013-03-23 11:32:00,
2013-03-23 06:42:00,22.0,18.0,30.12,NW,319,0.0,1.0,86,0.00,,,0.00,,2013-03-23 11:42:00,
2013-03-23 06:51:00,21.0,18.0,30.13,NW,308,0.0,2.0,87,0.00,,,0.00,,2013-03-23 11:51:00,
2013-03-23 07:02:00,21.0,18.0,30.13,NW,308,0.0,1.0,87,0.00,,,0.00,,2013-03-23 12:02:00,
2013-03-23 07:13:00,21.0,18.0,30.13,NW,308,0.0,1.0,87,0.00,,,0.00,,2013-03-23 12:13:00,
2013-03-23 07:22:00,21.0,18.0,30.13,NW,312,0.0,1.0,87,0.00,,,0.00,,2013-03-23 12:22:00,
2013-03-23 07:33:00,22.0,19.0,30.14,NW,312,0.0,0.0,88,0.00,,,0.00,,2013-03-23 12:33:00,
2013-03-23 07:42:00,22.0,19.0,30.14,NW,312,0.0,0.0,88,0.00,,,0.00,,2013-03-23 12:42:00,
2013-03-23 07:52:00,22.0,19.0,30.14,NW,312,0.0,0.0,88,0.00,,,0.00,,2013-03-23 12:52:00,
2013-03-23 08:03:00,22.0,18.0,30.15,WNW,297,0.0,1.0,86,0.00,,,0.00,,2013-03-23 13:03:00,
2013-03-23 08:12:00,22.0,18.0,30.15,WNW,297,0.0,1.0,86,0.00,,,0.00,,2013-03-23 13:12:00,
2013-03-23 08:23:00,23.0,19.0,30.15,NNW,334,0.0,1.0,86,0.00,,,0.00,,2013-03-23 13:23:00,
2013-03-23 08:33:00,23.0,19.0,30.15,West,274,0.0,1.0,85,0.00,,,0.00,,2013-03-23 13:33:00,
2013-03-23 08:42:00,23.0,19.0,30.15,West,274,0.0,1.0,85,0.00,,,0.00,,2013-03-23 13:42:00,
2013-03-23 08:52:00,24.0,20.0,30.15,NNW,334,0.0,0.0,84,0.00,,,0.00,,2013-03-23 13:52:00,
2013-03-23 09:03:00,24.0,20.0,30.15,NNW,338,0.0,2.0,84,0.00,,,0.00,,2013-03-23 14:03:00,
2013-03-23 09:12:00,24.0,20.0,30.15,NNW,338,0.0,2.0,84,0.00,,,0.00,,2013-03-23 14:12:00,
2013-03-23 09:22:00,25.0,20.0,30.15,WSW,251,0.0,1.0,82,0.00,,,0.00,,2013-03-23 14:22:00,
2013-03-23 09:32:00,26.0,21.0,30.15,SW,229,0.0,1.0,81,0.00,,,0.00,,2013-03-23 14:32:00,
2013-03-23 09:42:00,26.0,21.0,30.15,SW,229,0.0,1.0,81,0.00,,,0.00,,2013-03-23 14:42:00,
2013-03-23 09:52:00,26.0,20.0,30.15,NNW,329,0.0,3.0,79,0.00,,,0.00,,2013-03-23 14:52:00,
2013-03-23 10:03:00,27.0,21.0,30.15,WSW,246,0.0,1.0,78,0.00,,,0.00,,2013-03-23 15:03:00,
2013-03-23 10:12:00,27.0,21.0,30.15,WSW,246,0.0,1.0,78,0.00,,,0.00,,2013-03-23 15:12:00,
2013-03-23 10:22:00,28.0,21.0,30.15,WNW,287,0.0,2.0,76,0.00,,,0.00,,2013-03-23 15:22:00,
2013-03-23 10:33:00,28.0,21.0,30.16,NNE,12,0.0,1.0,74,0.00,,,0.00,,2013-03-23 15:33:00,
2013-03-23 10:43:00,28.0,21.0,30.16,NNE,12,0.0,1.0,74,0.00,,,0.00,,2013-03-23 15:43:00,
2013-03-23 10:52:00,29.0,21.0,30.16,NW,312,0.0,2.0,72,0.00,,,0.00,,2013-03-23 15:52:00,
2013-03-23 11:03:00,28.0,20.0,30.17,NNW,333,1.0,4.0,72,0.00,,,0.00,,2013-03-23 16:03:00,
2013-03-23 11:12:00,28.0,20.0,30.17,NNW,333,1.0,4.0,72,0.00,,,0.00,,2013-03-23 16:12:00,
2013-03-23 11:23:00,28.0,21.0,30.16,West,262,0.0,3.0,74,0.00,,,0.00,,2013-03-23 16:23:00,
2013-03-23 11:33:00,28.0,21.0,30.16,West,262,0.0,3.0,74,0.00,,,0.00,,2013-03-23 16:33:00,
2013-03-23 11:43:00,28.0,21.0,30.16,West,262,0.0,3.0,74,0.00,,,0.00,,2013-03-23 16:43:00,
2013-03-23 11:53:00,29.0,21.0,30.16,NNW,347,0.0,3.0,72,0.00,,,0.00,,2013-03-23 16:53:00,
2013-03-23 12:02:00,30.0,21.0,30.16,SW,235,1.0,4.0,68,0.00,,,0.00,,2013-03-23 17:02:00,
2013-03-23 12:12:00,30.0,21.0,30.16,SW,235,1.0,4.0,68,0.00,,,0.00,,2013-03-23 17:12:00,
2013-03-23 12:22:00,30.0,21.0,30.16,West,280,1.0,3.0,68,0.00,,,0.00,,2013-03-23 17:22:00,
2013-03-23 12:32:00,30.0,21.0,30.17,SSW,210,0.0,2.0,69,0.00,,,0.00,,2013-03-23 17:32:00,
2013-03-23 12:42:00,30.0,21.0,30.17,SSW,210,0.0,2.0,69,0.00,,,0.00,,2013-03-23 17:42:00,
2013-03-23 12:52:00,31.0,21.0,30.16,WNW,297,0.0,3.0,67,0.00,,,0.00,,2013-03-23 17:52:00,
2013-03-23 13:03:00,31.0,21.0,30.16,South,175,0.0,4.0,66,0.00,,,0.00,,2013-03-23 18:03:00,
2013-03-23 13:12:00,31.0,21.0,30.16,South,175,0.0,4.0,66,0.00,,,0.00,,2013-03-23 18:12:00,
2013-03-23 13:22:00,32.0,21.0,30.17,ENE,74,0.0,2.0,64,0.00,,,0.00,,2013-03-23 18:22:00,
2013-03-23 13:32:00,31.0,21.0,30.16,West,281,1.0,4.0,65,0.00,,,0.00,,2013-03-23 18:32:00,
2013-03-23 13:42:00,31.0,21.0,30.16,West,281,1.0,4.0,65,0.00,,,0.00,,2013-03-23 18:42:00,
2013-03-23 13:52:00,31.0,21.0,30.16,WNW,284,0.0,3.0,65,0.00,,,0.00,,2013-03-23 18:52:00,
2013-03-23 14:03:00,32.0,21.0,30.14,West,268,0.0,4.0,64,0.00,,,0.00,,2013-03-23 19:03:00,
2013-03-23 14:12:00,32.0,21.0,30.14,West,268,0.0,4.0,64,0.00,,,0.00,,2013-03-23 19:12:00,
2013-03-23 14:22:00,32.0,21.0,30.15,ENE,62,1.0,3.0,64,0.00,,,0.00,,2013-03-23 19:22:00,
2013-03-23 14:32:00,33.0,22.0,30.14,WSW,257,0.0,2.0,63,0.00,,,0.00,,2013-03-23 19:32:00,
2013-03-23 14:42:00,33.0,22.0,30.14,WSW,257,0.0,2.0,63,0.00,,,0.00,,2013-03-23 19:42:00,
2013-03-23 14:52:00,33.0,22.0,30.13,NW,315,0.0,3.0,63,0.01,,,0.01,,2013-03-23 19:52:00,
2013-03-23 15:02:00,34.0,22.0,30.13,West,281,0.0,2.0,61,0.02,,,0.02,,2013-03-23 20:02:00,
2013-03-23 15:13:00,34.0,22.0,30.13,West,281,0.0,2.0,61,0.02,,,0.02,,2013-03-23 20:13:00,
2013-03-23 15:22:00,34.0,22.0,30.13,West,273,0.0,3.0,60,0.02,,,0.02,,2013-03-23 20:22:00,
2013-03-23 15:32:00,34.0,22.0,30.13,North,352,0.0,3.0,61,0.02,,,0.02,,2013-03-23 20:32:00,
2013-03-23 15:42:00,34.0,22.0,30.13,North,352,0.0,3.0,61,0.02,,,0.02,,2013-03-23 20:42:00,
2013-03-23 15:52:00,33.0,22.0,30.12,NE,50,0.0,4.0,63,0.01,,,0.02,,2013-03-23 20:52:00,
2013-03-23 16:02:00,34.0,22.0,30.12,ESE,115,1.0,4.0,61,0.00,,,0.02,,2013-03-23 21:02:00,
2013-03-23 16:12:00,34.0,22.0,30.12,ESE,115,1.0,4.0,61,0.00,,,0.02,,2013-03-23 21:12:00,
2013-03-23 16:22:00,34.0,23.0,30.12,East,97,1.0,3.0,63,0.00,,,0.02,,2013-03-23 21:22:00,
2013-03-23 16:33:00,33.0,22.0,30.13,WSW,258,0.0,2.0,64,0.00,,,0.02,,2013-03-23 21:33:00,
2013-03-23 16:43:00,33.0,22.0,30.13,WSW,258,0.0,2.0,64,0.00,,,0.02,,2013-03-23 21:43:00,
2013-03-23 16:54:00,33.0,22.0,30.13,NNW,343,0.0,1.0,63,0.00,,,0.02,,2013-03-23 21:54:00,
2013-03-23 17:02:00,33.0,23.0,30.12,SE,146,0.0,2.0,65,0.01,,,0.03,,2013-03-23 22:02:00,
2013-03-23 17:12:00,33.0,23.0,30.12,SE,146,0.0,2.0,65,0.01,,,0.03,,2013-03-23 22:12:00,
2013-03-23 17:23:00,33.0,22.0,30.11,East,89,0.0,1.0,64,0.01,,,0.03,,2013-03-23 22:23:00,
2013-03-23 17:33:00,34.0,23.0,30.11,East,101,0.0,3.0,63,0.01,,,0.03,,2013-03-23 22:33:00,
2013-03-23 17:42:00,34.0,23.0,30.11,East,101,0.0,3.0,63,0.01,,,0.03,,2013-03-23 22:42:00,
2013-03-23 17:53:00,32.0,23.0,30.11,NW,310,0.0,5.0,68,0.01,,,0.03,,2013-03-23 22:53:00,
2013-03-23 18:02:00,32.0,23.0,30.11,SE,131,0.0,3.0,68,0.00,,,0.03,,2013-03-23 23:02:00,
2013-03-23 18:12:00,32.0,23.0,30.11,SE,131,0.0,3.0,68,0.00,,,0.03,,2013-03-23 23:12:00,
2013-03-23 18:23:00,32.0,23.0,30.12,East,91,0.0,1.0,69,0.00,,,0.03,,2013-03-23 23:23:00,
2013-03-23 18:33:00,31.0,22.0,30.12,ESE,121,0.0,2.0,70,0.00,,,0.03,,2013-03-23 23:33:00,
2013-03-23 18:42:00,31.0,22.0,30.12,ESE,121,0.0,2.0,70,0.00,,,0.03,,2013-03-23 23:42:00,
2013-03-23 18:52:00,31.0,23.0,30.13,WNW,284,0.0,3.0,71,0.00,,,0.03,,2013-03-23 23:52:00,
2013-03-23 19:02:00,30.0,22.0,30.13,East,95,0.0,1.0,73,0.00,,,0.03,,2013-03-24 00:02:00,
2013-03-23 19:12:00,30.0,22.0,30.13,East,95,0.0,1.0,73,0.00,,,0.03,,2013-03-24 00:12:00,
2013-03-23 19:22:00,30.0,22.0,30.13,East,98,0.0,0.0,73,0.00,,,0.03,,2013-03-24 00:22:00,
2013-03-23 19:32:00,30.0,23.0,30.12,ESE,115,0.0,1.0,74,0.00,,,0.03,,2013-03-24 00:32:00,
2013-03-23 19:42:00,30.0,23.0,30.12,ESE,115,0.0,1.0,74,0.00,,,0.03,,2013-03-24 00:42:00,
2013-03-23 19:52:00,29.0,22.0,30.13,ESE,102,0.0,0.0,74,0.00,,,0.03,,2013-03-24 00:52:00,
2013-03-23 20:02:00,29.0,22.0,30.13,ESE,102,0.0,0.0,75,0.00,,,0.03,,2013-03-24 01:02:00,
2013-03-23 20:12:00,29.0,22.0,30.13,ESE,102,0.0,0.0,75,0.00,,,0.03,,2013-03-24 01:12:00,
2013-03-23 20:22:00,29.0,22.0,30.13,ENE,58,0.0,1.0,74,0.00,,,0.03,,2013-03-24 01:22:00,
2013-03-23 20:32:00,29.0,22.0,30.13,East,91,0.0,1.0,75,0.00,,,0.03,,2013-03-24 01:32:00,
2013-03-23 20:42:00,29.0,22.0,30.13,East,91,0.0,1.0,75,0.00,,,0.03,,2013-03-24 01:42:00,
2013-03-23 20:53:00,29.0,22.0,30.13,East,91,0.0,1.0,75,0.00,,,0.03,,2013-03-24 01:53:00,
2013-03-23 21:02:00,29.0,22.0,30.13,East,100,0.0,0.0,75,0.00,,,0.03,,2013-03-24 02:02:00,
2013-03-23 21:12:00,29.0,22.0,30.13,East,100,0.0,0.0,75,0.00,,,0.03,,2013-03-24 02:12:00,
2013-03-23 21:22:00,29.0,22.0,30.14,SE,142,0.0,1.0,74,0.00,,,0.03,,2013-03-24 02:22:00,
2013-03-23 21:32:00,29.0,22.0,30.14,SE,142,0.0,1.0,74,0.00,,,0.03,,2013-03-24 02:32:00,
2013-03-23 21:42:00,29.0,22.0,30.14,SE,142,0.0,1.0,74,0.00,,,0.03,,2013-03-24 02:42:00,
2013-03-23 21:52:00,28.0,21.0,30.14,NW,304,0.0,1.0,76,0.00,,,0.03,,2013-03-24 02:52:00,
2013-03-23 22:02:00,28.0,21.0,30.13,WSW,242,0.0,0.0,76,0.00,,,0.03,,2013-03-24 03:02:00,
2013-03-23 22:12:00,28.0,21.0,30.13,WSW,242,0.0,0.0,76,0.00,,,0.03,,2013-03-24 03:12:00,
2013-03-23 22:22:00,28.0,22.0,30.13,WSW,242,0.0,0.0,77,0.00,,,0.03,,2013-03-24 03:22:00,
2013-03-23 22:33:00,28.0,22.0,30.14,West,263,0.0,0.0,77,0.00,,,0.03,,2013-03-24 03:33:00,
2013-03-23 22:42:00,28.0,22.0,30.14,West,263,0.0,0.0,77,0.00,,,0.03,,2013-03-24 03:42:00,
2013-03-23 22:53:00,28.0,22.0,30.13,East,91,0.0,1.0,77,0.00,,,0.03,,2013-03-24 03:53:00,
2013-03-23 23:02:00,28.0,22.0,30.13,West,277,0.0,2.0,77,0.00,,,0.03,,2013-03-24 04:02:00,
2013-03-23 23:12:00,28.0,22.0,30.13,West,277,0.0,2.0,77,0.00,,,0.03,,2013-03-24 04:12:00,
2013-03-23 23:22:00,28.0,22.0,30.12,WNW,283,0.0,1.0,78,0.00,,,0.03,,2013-03-24 04:22:00,
2013-03-23 23:32:00,28.0,22.0,30.13,SE,138,0.0,2.0,78,0.00,,,0.03,,2013-03-24 04:32:00,
2013-03-23 23:42:00,28.0,22.0,30.13,SE,138,0.0,2.0,78,0.00,,,0.03,,2013-03-24 04:42:00,
2013-03-23 23:53:00,28.0,22.0,30.13,NNW,333,0.0,1.0,78,0.00,,,0.03,,2013-03-24 04:53:00,